Pasco, WA

9:33 AM PDT on September 30, 2016 (GMT -0700)
Tri-Cities

Weather History for KPSC - September, 2013

Change the Weather History Date:

Friday, September 6, 2013

  Actual Average Record
Temperature  
Mean Temperature 63 °F 67 °F  
Max Temperature 71 °F 84 °F 100 °F (1998)
Min Temperature 54 °F 50 °F 40 °F (2002)
Degree Days  
Heating Degree Days 2 1  
Month to date heating degree days 2 6  
Since 1 July heating degree days 2 18  
Cooling Degree Days 0 3  
Month to date cooling degree days 53 22  
Year to date cooling degree days 888 679  
Growing Degree Days 17 (Base 50)    
Moisture  
Dew Point 55 °F    
Average Humidity 77    
Maximum Humidity 93    
Minimum Humidity 61    
Precipitation  
Precipitation 0.05 in 0.01 in 0.23 in (2016)
Month to date precipitation 0.06 0.06  
Year to date precipitation 4.42 5.54  
Snow  
Snow 0.00 in - - ()
Month to date snowfall 0.0  
Year to date snowfall 1.1  
Snow Depth 0.00 in    
Sea Level Pressure  
Sea Level Pressure 30.03 in    
Wind  
Wind Speed 3 mph (SW)    
Max Wind Speed 8 mph    
Max Gust Speed 10 mph    
Visibility 10 miles    
Events Rain    
T = Trace of Precipitation, MM = Missing Value Source: NWS Daily Summary

Daily Weather History Graph

Daily Weather History Graph

Search for Another Location

Airport or City:

Trip Planner

Search our weather history database for the weather conditions in past years. The results will help you decide how hot, cold, wet, or windy it might be!

Date:

Astronomy

Sep. 06, 2013 Rise Set
Actual Time 6:23 AM PDT 7:24 PM PDT
Civil Twilight 5:52 AM PDT 7:55 PM PDT
Nautical Twilight 5:16 AM PDT 8:32 PM PDT
Astronomical Twilight 4:37 AM PDT 9:10 PM PDT
Moon 7:48 AM PDT (9/6) 7:42 PM PDT (9/6)
Length of Visible Light 14h 02m
Length of Day
13h 01m
New Moon, 2% of the Moon is Illuminated
Sep 6
New Moon
Sep 12
First Quarter
Sep 19
Full
Sep 26
Last Quarter
Oct 4
New

Hourly Weather History & Observations

Time (PDT) Temp. Dew Point Humidity Pressure Visibility Wind Dir Wind Speed Gust Speed Precip Events Conditions
12:24 AM 64.4 °F 57.2 °F 77% 29.94 in 10.0 mi South 11.5 mph - N/A   Clear
12:53 AM 64.0 °F 57.9 °F 80% 29.95 in 10.0 mi SSW 13.8 mph - N/A   Clear
1:53 AM 62.1 °F 55.0 °F 78% 29.95 in 10.0 mi Calm Calm - N/A   Clear
2:53 AM 62.1 °F 54.0 °F 75% 29.96 in 10.0 mi WSW 8.1 mph - N/A   Clear
3:53 AM 62.1 °F 52.0 °F 70% 29.95 in 10.0 mi SW 19.6 mph 25.3 mph N/A   Clear
4:53 AM 62.1 °F 52.0 °F 70% 29.97 in 10.0 mi SSW 16.1 mph 20.7 mph N/A   Clear
5:53 AM 62.1 °F 52.0 °F 70% 29.99 in 10.0 mi WSW 6.9 mph - N/A   Clear
6:53 AM 63.0 °F 50.0 °F 63% 30.01 in 10.0 mi South 8.1 mph - N/A   Clear
7:53 AM 64.9 °F 51.1 °F 61% 30.03 in 10.0 mi SSW 12.7 mph - N/A   Clear
8:53 AM 66.9 °F 53.1 °F 61% 30.04 in 10.0 mi SSW 11.5 mph 19.6 mph N/A   Partly Cloudy
9:53 AM 66.9 °F 55.0 °F 66% 30.05 in 10.0 mi SSW 13.8 mph 19.6 mph N/A   Mostly Cloudy
10:53 AM 66.9 °F 55.9 °F 68% 30.05 in 10.0 mi SW 11.5 mph - N/A   Overcast
11:53 AM 70.0 °F 54.0 °F 57% 30.05 in 10.0 mi SW 17.3 mph - N/A   Overcast
12:53 PM 69.1 °F 55.9 °F 63% 30.05 in 10.0 mi SW 15.0 mph 23.0 mph 0.00 in   Overcast
1:53 PM 70.0 °F 55.9 °F 61% 30.05 in 10.0 mi SSW 18.4 mph 24.2 mph 0.00 in Rain Light Rain
2:53 PM 73.0 °F 55.0 °F 53% 30.04 in 10.0 mi WSW 12.7 mph - 0.00 in   Mostly Cloudy
3:53 PM 71.1 °F 55.0 °F 57% 30.05 in 10.0 mi WSW 10.4 mph - N/A   Overcast
4:53 PM 71.1 °F 55.0 °F 57% 30.05 in 10.0 mi West 9.2 mph - N/A   Overcast
5:53 PM 71.1 °F 55.9 °F 59% 30.05 in 10.0 mi Calm Calm - N/A   Overcast
6:53 PM 70.0 °F 55.9 °F 61% 30.04 in 10.0 mi Calm Calm - N/A   Partly Cloudy
7:53 PM 66.9 °F 55.0 °F 66% 30.06 in 10.0 mi SSW 5.8 mph - N/A   Clear
8:53 PM 64.9 °F 55.9 °F 73% 30.07 in 10.0 mi SSW 5.8 mph - N/A   Partly Cloudy
9:53 PM 64.9 °F 55.0 °F 70% 30.08 in 10.0 mi Calm Calm - N/A   Clear
10:53 PM 61.0 °F 55.0 °F 81% 30.08 in 10.0 mi Calm Calm - N/A   Clear
11:53 PM 57.9 °F 54.0 °F 87% 30.08 in 10.0 mi Calm Calm - N/A   Clear